Temperature
5 4 5 5 5 6 6 5 4 4 5 5 5 5 6 7 6 6 7 7 8 8 8 9 9 9 9 9 9 9 9 9 9 9 9 9 10 10 10 10 10 10 11 11
4 5 5 5 5 5 5 4 4 4 5 6 4 4 5 5 5 6 7 7 8 8 8 9 9 9 9 9 9 9 8 8 8 9 9 9 9 9 9 10 10 10 10 10
5 6 6 6 5 5 5 4 4 5 4 4 3 4 5 5 6 6 7 7 7 7 8 8 8 8 8 8 8 8 8 8 8 8 8 8 8 8 8 9 9 10 10 10
5 5 6 6 5 5 5 5 5 5 4 3 3 4 4 4 4 5 6 7 7 8 8 8 8 8 8 8 8 8 8 8 8 8 8 8 8 8 8 8 9 9 9 9
5 5 5 5 6 5 5 5 5 4 3 2 2 2 3 3 4 5 5 6 7 7 7 8 8 8 8 8 8 7 7 7 7 7 7 7 7 7 8 8 8 8 9 9
4 5 5 5 6 6 5 4 3 1 1 2 2 1 3 3 4 5 5 6 7 7 7 7 7 7 7 7 7 7 7 7 7 7 7 7 7 7 7 7 8 8 8 8
4 4 5 5 5 5 4 3 3 2 1 2 2 2 3 4 4 4 4 6 6 7 7 7 7 7 7 7 7 7 7 7 7 7 7 7 7 7 7 7 7 7 8 8
4 4 4 4 5 4 4 3 3 3 2 2 2 2 3 4 4 5 5 5 6 6 6 6 6 7 7 7 7 6 6 6 6 6 6 6 6 6 6 6 7 7 7 7
3 3 4 4 5 4 3 3 3 2 1 0 1 1 2 3 3 4 4 5 5 6 6 6 6 6 6 6 6 6 6 6 6 6 6 6 6 6 6 6 6 7 7 7
3 3 3 4 4 4 3 2 1 1 1 1 2 1 3 3 4 4 3 4 5 6 6 6 6 5 6 6 6 6 6 6 6 6 6 5 6 6 6 6 6 6 7 7
3 2 3 3 3 3 2 2 2 0 0 1 1 4 4 3 4 3 3 4 5 5 5 5 5 5 5 5 5 5 5 5 5 5 5 5 5 5 5 6 6 6 6 7
2 2 1 1 2 3 2 2 1 1 0 -0 0 3 5 3 3 3 3 4 5 5 5 5 5 5 5 5 5 5 5 5 5 5 5 5 5 5 5 5 6 6 6 7
2 1 1 2 2 1 1 1 1 1 0 -0 0 3 4 3 3 3 3 4 4 4 4 4 4 4 4 4 4 4 4 4 5 5 4 4 5 5 5 5 6 6 6 6
3 1 2 3 3 1 0 0 0 0 1 1 1 3 4 4 3 3 4 4 4 4 4 4 4 4 4 4 4 4 4 4 4 4 4 4 4 4 4 5 5 6 6 6
2 2 1 2 2 2 1 2 1 1 1 1 3 3 4 4 3 3 3 3 3 3 3 3 3 3 3 3 3 3 4 4 4 4 4 4 4 4 4 5 5 5 6 6
2 2 1 1 2 1 2 2 2 2 2 2 2 3 4 3 3 3 3 3 2 3 3 3 3 3 3 3 3 3 3 3 3 4 4 3 4 4 4 4 5 5 5 6
1 1 1 2 1 1 2 2 2 2 2 2 2 3 3 2 2 2 2 2 2 2 3 3 3 3 3 2 2 3 3 3 3 3 3 3 3 3 4 4 4 5 5 5
1 1 1 1 0 2 3 2 2 2 2 2 2 2 2 2 2 2 3 2 2 2 2 3 3 2 2 2 2 2 2 3 3 3 3 3 3 3 4 4 4 4 5 5
1 1 1 1 0 1 2 2 1 1 1 1 1 2 1 2 1 2 3 3 3 2 2 2 2 2 2 2 2 2 2 2 2 2 3 3 3 3 3 3 4 4 4 5
0 1 1 1 0 1 2 2 1 1 1 1 1 1 0 0 -1 1 3 2 2 2 2 2 2 2 1 1 1 1 2 2 2 2 2 2 2 2 3 3 3 4 4 5
-1 -0 0 1 1 1 1 1 1 1 1 2 1 1 0 -1 0 2 2 2 2 2 2 1 1 1 1 1 1 1 1 1 1 1 2 2 2 2 2 3 3 4 4 4
-0 -1 -1 -0 0 1 1 -0 1 1 2 2 2 2 1 1 2 1 1 1 1 1 1 1 1 1 1 0 0 0 1 1 1 1 1 2 2 2 2 2 3 3 4 4
-1 0 -0 0 1 1 1 1 2 2 1 2 2 2 1 1 1 1 1 1 1 0 0 0 -0 0 0 0 0 -0 0 0 0 0 1 1 1 1 1 2 2 3 3 3
-2 -2 -2 -2 -1 -1 0 1 1 2 1 1 1 1 1 0 0 -0 -0 -0 -0 -0 -0 -0 -1 -1 -0 -0 -0 -0 -0 -0 -0 -0 0 0 1 1 1 1 2 2 3 3
-2 -3 -2 -2 -2 -1 -0 1 1 1 1 0 0 0 -0 -0 -1 -1 -1 -1 -1 -1 -1 -1 -1 -1 -1 -1 -1 -1 -1 -1 -1 -1 -0 0 0 0 1 1 1 2 2 2
-3 -2 -2 -1 -1 -1 -1 1 1 0 -0 -0 -1 -1 -1 -1 -1 -2 -2 -1 -2 -2 -2 -2 -2 -2 -2 -2 -1 -1 -1 -2 -2 -1 -1 -1 -0 -0 0 1 1 1 2 2
Wind_Speed
3 3 3 6 7 4 3 6 10 11 7 7 12 19 21 15 10 11 11 9 9 10 9 7 6 6 5 5 5 5 5 6 4 3 4 3 4 5 5 6 8 9 9 9
3 3 6 3 4 4 5 8 10 10 4 6 12 18 16 12 9 9 9 9 9 9 8 8 6 5 4 5 5 5 6 6 5 5 5 4 5 5 6 6 7 8 9 10
5 4 1 3 3 4 6 7 8 9 9 5 8 11 7 5 5 6 6 7 7 8 9 9 7 6 5 5 5 6 7 6 6 6 4 4 3 3 5 5 6 7 9 10
5 4 2 4 5 5 7 7 8 7 6 6 4 7 8 6 7 7 7 6 7 8 8 8 7 7 7 7 6 7 7 6 6 5 5 6 6 7 7 7 7 8 9 9
5 3 3 5 5 5 6 3 4 4 3 5 2 5 10 5 6 7 7 7 8 8 7 8 8 8 8 7 6 6 7 7 6 6 6 7 8 8 6 6 7 8 8 9
6 3 4 5 2 3 2 3 2 3 2 4 4 5 8 5 6 6 6 7 8 8 8 8 8 7 7 7 6 6 7 7 7 7 7 8 9 8 8 9 8 8 7 7
5 4 3 2 0 2 3 4 5 6 4 6 2 4 10 8 7 7 9 9 9 8 8 8 9 8 8 8 7 7 7 8 8 8 8 8 9 9 9 10 9 8 7 8
3 7 4 3 4 3 2 5 3 4 5 6 4 7 8 7 7 7 7 8 8 8 8 8 9 9 9 9 8 8 8 8 8 9 9 8 9 8 8 9 9 9 9 9
5 6 3 2 2 6 3 3 4 3 3 6 7 8 10 7 8 7 7 7 8 9 9 9 9 9 9 9 9 9 9 9 9 9 9 8 8 9 9 10 9 8 8 8
7 5 5 2 1 1 4 6 4 3 3 7 7 7 6 7 8 8 7 8 9 9 10 10 10 9 9 9 9 8 8 9 10 9 8 8 8 9 9 9 10 8 9 8
4 4 4 1 6 7 4 4 4 4 4 4 7 8 6 8 8 8 9 9 9 10 11 10 10 9 9 9 8 8 8 9 9 8 8 9 9 9 9 9 9 8 8 9
5 4 5 8 6 3 6 7 7 5 6 5 6 10 6 7 7 7 10 10 10 11 11 10 10 9 8 8 8 8 8 8 8 7 8 8 8 8 8 9 8 7 8 9
6 4 3 5 2 1 3 5 7 5 4 6 8 12 4 4 7 9 10 11 11 12 11 10 9 8 8 8 8 9 9 9 8 7 8 8 8 8 9 9 7 7 7 8
6 7 9 11 8 5 6 7 7 7 7 10 15 21 19 16 15 14 12 12 11 11 11 10 9 9 9 9 8 9 9 9 8 8 7 8 8 8 9 8 7 7 7 7
5 7 10 14 12 8 12 13 12 15 15 16 20 22 26 20 16 14 12 12 11 11 11 10 10 9 9 9 9 9 9 9 9 8 8 8 8 7 7 7 7 6 6 6
6 6 6 11 12 13 19 19 17 19 18 21 24 27 24 18 13 12 12 11 11 12 11 11 10 10 10 10 10 9 9 10 9 8 8 8 7 7 7 6 6 6 6 6
6 5 5 10 6 6 14 14 16 12 12 13 19 22 16 13 13 12 10 9 10 11 11 10 10 9 9 9 9 9 9 9 8 8 8 8 6 6 6 5 5 6 6 6
8 7 6 6 3 14 11 5 10 13 16 15 14 15 13 12 11 10 8 8 10 10 10 9 8 8 8 8 8 8 8 8 8 8 8 7 7 6 6 5 6 6 6 5
13 11 7 5 8 12 11 5 6 8 11 10 13 14 12 9 7 8 7 6 8 9 9 8 7 7 7 8 8 8 8 7 7 8 8 8 7 7 6 6 6 6 5 6
8 10 9 7 7 9 9 4 3 2 8 7 7 9 9 3 5 8 7 6 7 7 7 7 7 7 7 8 7 7 8 8 8 9 9 8 7 6 7 7 6 6 5 6
6 7 12 12 11 10 7 3 5 4 8 4 4 6 5 6 8 8 8 7 7 7 8 7 7 7 7 7 6 7 7 8 9 9 8 8 7 6 7 7 6 6 5 4
10 8 9 7 9 11 5 7 8 8 3 3 5 6 7 8 10 9 8 9 8 8 8 7 7 9 8 7 6 7 8 9 9 8 8 8 7 6 6 6 6 5 4 3
10 11 7 11 11 5 6 7 6 3 5 6 6 7 7 8 9 10 9 9 9 9 8 7 7 9 9 7 5 7 9 9 9 8 8 8 7 6 5 5 5 4 2 2
6 4 5 7 9 7 7 7 7 7 8 8 7 8 7 9 10 10 10 9 9 8 8 7 7 9 10 8 7 7 8 8 8 9 8 8 7 6 5 4 4 3 2 2
7 6 6 8 8 7 8 9 9 8 8 8 8 8 8 9 10 10 10 10 9 9 8 7 8 9 11 10 9 7 7 7 8 8 8 7 6 5 5 4 4 4 4 4
7 8 8 11 8 7 8 6 6 8 9 9 9 9 8 8 11 10 10 9 8 9 8 8 9 9 10 9 9 8 7 6 7 7 7 6 5 4 4 4 5 5 5 6
Wind_Direction
47 77 222 224 208 223 242 257 273 271 273 282 269 277 285 288 280 279 281 282 282 282 280 282 284 291 297 286 274 272 283 278 276 274 264 260 255 247 239 228 225 223 226 220
35 258 241 219 205 231 248 270 277 285 284 283 284 283 279 274 261 258 267 280 284 287 295 296 294 294 293 283 278 276 277 266 262 260 252 246 250 247 241 238 228 224 223 223
218 245 219 198 232 249 254 245 262 281 312 303 310 300 287 285 279 280 278 278 287 281 279 288 292 286 289 288 282 280 276 270 265 269 272 274 271 263 251 245 234 226 224 224
251 260 246 245 248 219 268 245 252 281 315 304 12 306 291 296 307 295 293 299 298 296 285 285 289 288 280 277 283 278 277 278 272 267 267 260 256 256 251 243 240 236 227 224
262 245 231 245 245 201 241 286 273 282 255 289 252 237 286 306 295 286 290 297 302 305 298 289 281 277 278 276 279 285 287 281 279 270 262 262 257 253 255 249 243 240 234 227
257 262 230 230 265 213 259 354 1 39 66 286 241 203 282 260 246 275 289 297 304 308 308 303 289 286 284 283 282 281 284 284 280 276 270 261 262 261 260 257 244 240 237 231
304 278 249 194 224 29 69 48 355 348 349 259 239 235 255 253 245 253 274 291 299 302 306 310 304 298 295 290 284 281 281 284 286 280 274 261 258 253 249 252 242 241 237 237
291 290 239 199 194 185 177 139 166 258 269 290 287 247 256 259 266 266 272 280 295 301 304 306 303 293 288 284 284 282 281 284 287 281 277 267 259 254 252 250 246 240 232 231
199 260 286 223 208 151 148 192 177 173 276 279 271 278 295 277 285 285 288 291 291 297 304 304 302 293 287 284 279 276 276 281 283 281 277 275 265 259 259 257 248 243 234 229
172 251 280 302 82 228 171 152 112 151 268 277 282 269 261 284 282 290 296 294 289 298 305 304 302 296 288 282 277 276 273 274 279 283 277 278 274 268 264 257 248 243 235 225
163 207 289 304 205 201 150 158 168 180 205 229 278 271 229 241 261 275 282 285 290 297 300 300 298 295 293 290 287 284 284 281 283 282 284 282 278 275 274 261 247 242 237 226
184 176 252 248 242 201 191 190 170 195 237 225 257 274 251 239 260 268 281 291 297 295 297 297 294 295 299 298 295 293 291 286 282 280 283 283 282 278 276 271 257 247 245 231
162 169 279 311 320 172 222 215 202 205 215 225 244 267 273 282 287 284 289 296 297 298 299 300 301 300 300 299 299 299 294 290 289 289 288 288 287 282 277 275 266 253 246 231
172 191 211 236 238 203 232 235 207 201 232 248 245 263 279 284 287 292 295 293 294 295 297 300 299 299 302 301 301 300 299 295 293 290 288 285 281 279 276 273 272 256 246 234
180 230 235 251 256 244 247 247 225 225 232 245 261 267 274 280 283 287 290 293 297 299 301 300 300 301 303 304 304 304 302 301 299 293 286 281 281 281 276 272 274 265 252 244
196 238 245 260 250 250 261 256 243 243 244 248 261 270 271 278 282 283 284 287 292 296 297 298 300 304 305 304 304 306 304 303 303 297 289 287 287 286 277 272 274 269 261 249
203 219 246 265 269 276 262 243 235 235 228 230 249 260 275 284 282 280 281 283 286 289 291 293 296 296 298 299 300 300 298 301 303 301 297 295 291 286 277 276 278 272 265 251
212 222 242 264 270 255 257 207 218 236 247 237 245 261 270 273 282 281 271 274 284 287 289 291 294 297 299 300 303 303 301 303 304 304 305 307 301 293 289 277 273 274 273 259
213 219 231 232 249 266 278 241 202 220 259 241 244 261 272 282 303 290 270 261 266 274 280 281 280 288 295 300 306 310 308 308 310 308 308 307 303 300 300 284 277 276 275 267
206 211 225 228 240 251 255 233 173 143 272 258 232 255 269 282 292 288 291 283 276 279 284 287 290 294 296 300 309 312 310 313 311 307 305 303 300 299 296 286 279 278 273 265
186 208 224 235 245 258 253 189 131 196 255 267 230 252 252 233 244 271 291 287 280 282 286 291 296 295 291 297 308 307 305 305 304 305 303 302 301 298 291 295 287 281 276 269
196 202 213 214 235 252 202 153 190 229 260 260 256 252 250 257 270 280 283 283 287 290 293 295 297 296 297 299 302 299 296 300 305 307 306 302 300 299 298 293 292 283 267 258
209 206 207 210 231 249 183 204 231 244 257 258 257 260 260 270 277 282 283 283 284 284 287 290 288 295 300 301 296 286 294 303 309 309 307 304 298 292 290 291 295 290 267 251
242 212 218 249 259 258 254 259 261 253 254 264 263 267 266 269 276 281 282 283 283 284 285 287 291 295 299 301 297 282 289 299 306 306 303 302 300 300 303 298 289 279 258 251
221 193 220 249 267 282 264 250 256 268 268 268 271 268 265 269 277 277 279 280 281 284 284 284 284 286 290 297 297 296 296 298 301 302 301 304 301 296 299 296 289 283 274 255
214 207 218 246 242 235 258 258 257 264 268 269 277 283 278 269 273 276 276 277 279 281 282 285 285 284 288 293 295 300 300 299 300 305 305 301 300 297 300 305 311 298 283 282
Height
1486 1490 1490 1489 1489 1488 1489 1490 1489 1483 1476 1475 1469 1461 1451 1448 1447 1445 1442 1441 1439 1437 1436 1435 1434 1433 1432 1431 1430 1429 1429 1428 1427 1426 1425 1424 1424 1424 1425 1427 1428 1429 1431 1433
1489 1489 1485 1485 1486 1487 1488 1489 1486 1478 1474 1472 1466 1457 1447 1443 1442 1440 1439 1437 1435 1433 1432 1431 1430 1429 1428 1427 1426 1425 1425 1423 1422 1421 1420 1419 1418 1418 1419 1420 1421 1423 1425 1427
1487 1484 1482 1483 1484 1485 1485 1486 1482 1479 1474 1471 1470 1455 1445 1440 1438 1437 1436 1434 1433 1431 1429 1427 1427 1426 1425 1423 1422 1421 1420 1419 1417 1416 1415 1414 1413 1413 1413 1413 1414 1416 1418 1420
1485 1482 1481 1481 1482 1482 1482 1477 1477 1477 1480 1478 1476 1468 1448 1442 1438 1435 1433 1432 1430 1428 1426 1425 1424 1423 1421 1420 1419 1417 1416 1414 1413 1412 1411 1409 1408 1406 1406 1407 1408 1409 1411 1412
1482 1480 1480 1480 1478 1478 1478 1475 1476 1476 1479 1482 1478 1478 1453 1445 1440 1434 1431 1429 1428 1426 1424 1422 1421 1420 1418 1417 1415 1413 1411 1410 1409 1407 1406 1404 1403 1402 1401 1401 1402 1403 1404 1405
1481 1479 1478 1476 1475 1475 1475 1476 1478 1483 1485 1485 1476 1479 1458 1446 1437 1432 1429 1427 1425 1424 1422 1420 1417 1416 1415 1413 1411 1410 1408 1406 1404 1402 1400 1399 1397 1396 1395 1395 1395 1396 1397 1399
1481 1477 1475 1474 1475 1475 1477 1482 1488 1488 1492 1483 1472 1472 1454 1435 1432 1430 1428 1425 1423 1422 1419 1417 1414 1412 1411 1409 1407 1405 1403 1401 1399 1397 1395 1393 1391 1390 1389 1388 1388 1388 1389 1391
1485 1480 1474 1473 1473 1476 1478 1481 1490 1491 1490 1478 1471 1464 1443 1430 1427 1426 1425 1423 1420 1418 1416 1414 1411 1409 1407 1405 1403 1400 1398 1395 1393 1391 1389 1387 1386 1384 1383 1382 1382 1382 1382 1383
1486 1481 1472 1471 1471 1473 1479 1482 1482 1490 1492 1491 1472 1459 1441 1427 1424 1423 1421 1419 1417 1415 1413 1411 1408 1405 1403 1400 1398 1396 1393 1390 1388 1386 1383 1381 1379 1378 1377 1376 1376 1375 1375 1376
1478 1481 1474 1472 1471 1472 1474 1479 1487 1489 1489 1482 1468 1459 1443 1429 1424 1421 1419 1417 1414 1412 1410 1407 1404 1401 1398 1396 1393 1391 1388 1385 1383 1380 1378 1376 1374 1372 1370 1370 1369 1369 1369 1371
1476 1480 1476 1474 1472 1472 1477 1479 1479 1485 1485 1483 1472 1444 1428 1425 1420 1419 1417 1414 1412 1409 1406 1403 1400 1397 1394 1391 1388 1386 1383 1380 1377 1375 1372 1370 1367 1365 1364 1362 1362 1362 1363 1365
1473 1478 1479 1473 1466 1465 1468 1470 1474 1480 1480 1481 1472 1440 1419 1419 1417 1416 1414 1411 1409 1406 1403 1399 1396 1393 1389 1386 1383 1381 1378 1375 1372 1370 1368 1364 1362 1359 1358 1357 1356 1356 1357 1359
1469 1475 1476 1468 1470 1469 1468 1467 1467 1468 1472 1471 1466 1436 1417 1417 1414 1412 1411 1408 1405 1402 1398 1395 1391 1388 1385 1382 1379 1376 1373 1370 1368 1365 1362 1359 1356 1354 1352 1350 1350 1350 1351 1353
1462 1467 1466 1460 1457 1462 1465 1463 1463 1465 1463 1457 1445 1427 1415 1414 1411 1408 1407 1404 1400 1397 1394 1390 1387 1383 1380 1377 1375 1371 1368 1366 1363 1360 1357 1354 1351 1348 1347 1346 1346 1346 1346 1347
1458 1459 1458 1453 1451 1454 1452 1450 1453 1453 1448 1444 1428 1422 1410 1407 1406 1404 1401 1398 1396 1392 1389 1386 1382 1379 1376 1373 1370 1367 1364 1361 1358 1355 1352 1349 1346 1344 1343 1341 1341 1341 1341 1342
1453 1453 1452 1448 1445 1447 1442 1436 1438 1437 1435 1431 1424 1414 1403 1402 1401 1399 1396 1394 1391 1388 1385 1382 1378 1375 1372 1369 1366 1362 1359 1357 1353 1350 1347 1344 1342 1340 1338 1337 1336 1336 1336 1337
1449 1449 1448 1442 1441 1442 1433 1422 1423 1423 1418 1419 1415 1403 1398 1398 1396 1394 1392 1390 1387 1384 1381 1378 1375 1372 1369 1366 1363 1359 1356 1352 1349 1346 1343 1340 1338 1335 1334 1333 1332 1332 1332 1332
1442 1444 1443 1440 1444 1433 1411 1408 1409 1409 1406 1405 1402 1397 1396 1394 1391 1389 1388 1386 1383 1380 1377 1373 1371 1368 1365 1363 1360 1356 1353 1349 1345 1342 1339 1336 1334 1332 1330 1329 1328 1328 1328 1328
1431 1435 1437 1437 1434 1421 1409 1405 1405 1406 1401 1396 1396 1393 1391 1390 1389 1385 1383 1382 1380 1377 1374 1370 1368 1365 1362 1359 1356 1352 1349 1345 1342 1338 1335 1333 1331 1328 1326 1326 1325 1325 1324 1324
1426 1428 1431 1429 1428 1417 1401 1398 1397 1401 1400 1390 1390 1389 1388 1388 1390 1382 1379 1378 1376 1373 1370 1367 1365 1362 1359 1356 1353 1349 1345 1342 1339 1335 1332 1330 1328 1326 1324 1322 1322 1321 1321 1321
1425 1425 1423 1420 1416 1406 1396 1395 1397 1403 1394 1386 1385 1385 1385 1385 1383 1379 1376 1374 1372 1370 1367 1364 1361 1358 1355 1353 1349 1346 1342 1339 1336 1332 1330 1327 1325 1323 1321 1319 1319 1318 1318 1318
1414 1417 1417 1415 1412 1401 1390 1393 1393 1388 1383 1383 1382 1381 1380 1379 1376 1374 1372 1370 1368 1365 1363 1360 1357 1353 1351 1349 1345 1342 1339 1336 1333 1330 1326 1324 1322 1321 1319 1317 1316 1315 1315 1315
1404 1400 1400 1399 1392 1384 1384 1383 1382 1382 1381 1380 1379 1377 1376 1374 1372 1370 1368 1366 1363 1361 1359 1356 1353 1349 1346 1344 1342 1338 1335 1332 1329 1326 1323 1320 1319 1317 1316 1314 1312 1312 1312 1312
1396 1394 1395 1393 1384 1382 1381 1379 1379 1379 1377 1376 1375 1374 1372 1369 1367 1365 1363 1360 1358 1356 1354 1351 1348 1345 1341 1339 1337 1335 1332 1328 1325 1322 1319 1316 1314 1313 1312 1311 1310 1309 1309 1310
1388 1389 1389 1386 1380 1379 1375 1375 1374 1373 1372 1371 1369 1368 1366 1364 1362 1360 1357 1355 1353 1351 1349 1346 1343 1340 1337 1334 1332 1330 1327 1324 1321 1317 1315 1312 1311 1309 1308 1308 1307 1306 1307 1308
1380 1381 1382 1376 1373 1374 1371 1370 1370 1369 1367 1365 1364 1361 1360 1359 1356 1354 1351 1349 1347 1345 1342 1340 1337 1334 1332 1329 1327 1325 1323 1320 1317 1314 1311 1310 1308 1307 1306 1305 1305 1305 1306 1307